Wetbulb
49.45 49.49 49.91 50.13 50.17 49.98 49.79 48.68 49.06 48.70 49.57 50.05 50.36 50.31 50.29 49.97 48.84 46.78 44.31 46.65 43.68 42.00 42.34 44.24 44.66 40.94 40.58 41.12 36.88 38.94 36.45 37.06 35.17 30.19 32.15 31.78 31.38 34.40 33.49 35.71 34.49 32.33 31.93 33.12 34.77 31.23 28.22 40.61 41.82 42.74 47.09 50.89 50.39 50.01
49.58 49.72 49.65 49.79 49.73 49.69 49.46 48.07 48.41 48.55 48.49 48.80 49.47 50.07 50.24 50.36 49.66 48.75 42.50 46.98 51.11 44.97 43.02 47.19 47.00 47.40 46.39 45.54 41.90 40.15 38.64 38.11 39.52 35.28 33.16 33.52 34.05 34.95 33.98 29.64 38.40 31.94 35.53 34.60 36.16 33.87 41.07 42.61 43.69 48.84 50.38 48.95 48.66 49.64
49.68 49.53 49.34 49.17 49.15 49.01 48.56 47.55 47.83 48.15 48.51 49.08 48.85 49.92 50.46 50.46 49.76 48.41 44.15 44.97 44.86 43.93 42.77 43.18 43.07 49.66 51.39 49.46 49.27 40.02 40.85 41.46 41.23 42.40 38.08 37.20 32.89 37.90 31.22 33.23 36.43 37.86 41.44 37.86 38.68 40.67 42.30 44.41 46.48 48.55 50.00 48.71 49.63 49.87
48.80 48.70 48.57 48.43 47.61 47.10 46.99 47.06 47.16 47.48 48.48 48.46 49.22 49.76 50.28 50.32 49.67 48.47 43.32 45.78 46.08 44.77 37.64 40.28 49.25 46.60 51.87 50.66 48.30 46.57 43.62 42.53 43.04 41.54 38.57 37.96 35.31 41.26 36.49 37.19 37.64 38.55 40.46 38.28 37.64 41.21 43.41 44.28 45.57 47.08 49.29 50.38 49.78 50.81
47.89 47.74 47.77 47.53 47.23 47.01 47.80 47.83 47.94 47.62 47.54 48.04 48.57 49.85 49.79 49.52 49.71 47.98 46.99 46.94 47.99 44.51 38.85 40.36 45.02 49.25 50.46 50.11 48.02 47.07 44.81 42.43 39.55 39.03 38.39 37.75 41.29 41.11 40.45 39.89 38.09 40.18 38.33 36.94 36.76 42.80 42.21 43.72 46.46 47.97 48.05 48.97 48.87 49.53
46.31 46.85 46.90 47.07 47.05 47.22 47.01 47.98 48.72 48.87 48.52 49.37 49.30 49.66 49.77 49.51 49.07 46.39 44.62 48.43 49.23 49.45 42.18 36.57 45.12 46.07 49.96 50.26 48.36 45.92 45.88 43.08 42.08 41.04 40.00 40.96 45.58 41.19 35.41 35.97 41.35 43.02 43.89 44.15 40.69 45.11 45.97 46.71 47.92 49.09 48.59 49.41 49.66 50.49
45.85 45.76 46.06 45.85 46.63 46.60 46.66 47.32 48.26 48.42 48.62 48.93 49.29 49.44 49.44 49.06 47.74 44.78 44.81 48.81 51.39 50.49 42.62 37.44 38.96 47.66 50.65 48.51 47.74 47.37 47.28 45.26 44.29 42.39 40.96 40.89 41.84 43.00 39.32 35.36 42.21 43.54 45.01 45.33 46.69 46.46 44.65 46.77 45.02 48.88 49.56 50.46 50.62 51.75
44.55 44.52 44.83 45.60 45.94 45.86 46.03 46.53 46.94 47.34 47.66 48.15 48.43 48.86 49.04 48.61 48.50 46.55 49.91 49.87 52.09 47.37 44.81 37.86 38.06 42.13 49.63 44.37 42.88 47.20 44.45 45.56 44.67 43.06 42.89 40.22 41.81 40.45 35.21 41.08 43.65 45.15 46.12 45.96 46.56 47.04 46.76 47.00 47.63 48.14 49.37 49.74 48.37 48.07
43.37 43.78 43.89 44.45 45.21 45.27 45.43 46.42 47.11 47.68 47.75 47.88 48.06 48.66 48.37 47.32 47.69 49.62 52.74 51.52 51.03 47.25 40.16 40.41 35.95 36.20 47.83 44.26 44.90 44.89 44.70 39.24 44.72 40.98 40.43 41.45 38.27 33.56 39.62 41.31 42.62 43.57 43.34 44.19 45.02 44.86 45.69 45.85 45.88 46.64 46.73 47.33 46.38 46.58
42.65 42.97 43.41 43.63 44.23 44.45 45.12 45.78 46.78 47.25 48.03 48.16 47.74 46.96 45.70 47.23 52.84 51.68 47.39 44.32 43.50 43.73 43.53 38.59 42.75 38.71 44.68 43.53 41.57 41.70 42.84 39.27 36.76 39.60 42.43 37.73 36.63 42.73 43.95 45.80 44.33 44.70 44.45 44.77 41.34 41.87 44.16 44.36 44.45 45.31 45.59 46.51 46.27 46.50
42.72 42.92 43.09 43.38 43.67 43.92 44.08 44.77 46.18 47.36 48.17 47.08 45.13 43.44 46.45 51.52 47.72 46.31 41.93 40.56 40.75 39.21 42.09 41.84 41.94 39.76 46.80 41.49 39.64 41.98 37.84 38.61 33.97 38.84 37.29 36.10 35.12 41.37 44.58 45.02 45.89 45.20 44.03 45.70 45.72 46.28 45.47 45.38 44.80 45.32 45.83 46.93 46.98 47.29
42.14 42.33 42.66 42.91 43.31 43.69 43.96 44.38 45.85 45.45 43.56 43.46 42.82 44.74 46.08 44.02 42.54 39.44 38.82 42.07 40.96 39.48 44.22 42.70 44.21 44.53 45.08 46.74 40.54 40.80 35.87 37.63 34.07 42.45 37.11 34.27 40.24 43.66 45.01 45.50 46.15 46.27 46.15 46.85 46.51 46.41 46.00 46.51 45.60 45.43 45.74 45.56 46.77 47.58
41.81 41.98 42.44 42.79 43.23 44.04 45.45 46.32 46.90 46.62 46.16 46.64 42.93 40.35 39.25 39.96 34.82 35.14 32.88 38.12 39.52 43.82 45.65 45.54 42.54 44.77 45.07 45.02 40.61 38.37 33.25 33.28 41.26 35.27 35.38 38.99 43.44 44.64 45.63 46.16 46.81 46.73 46.54 46.53 47.76 46.69 47.56 46.52 47.39 46.48 46.25 47.51 46.76 47.64
41.43 42.00 42.28 43.02 45.10 46.28 45.39 45.29 45.27 44.45 43.64 42.10 40.34 34.10 35.71 34.37 37.81 38.75 40.09 42.19 46.30 46.24 44.79 43.98 43.22 42.06 44.11 40.05 40.67 35.27 37.91 38.37 32.52 30.01 32.78 39.84 43.80 46.22 46.34 47.17 45.98 45.51 45.40 45.65 46.80 47.59 47.33 46.81 45.64 45.48 46.26 47.07 46.40 45.91
41.36 41.72 42.15 44.25 43.84 43.65 43.38 44.33 44.47 43.60 42.38 40.15 41.15 34.36 36.85 41.55 43.88 45.12 46.58 45.82 46.78 47.32 44.56 43.15 42.85 43.51 40.62 39.32 39.83 37.40 34.16 30.68 31.12 30.61 38.76 43.51 45.08 45.92 46.06 46.98 46.79 46.57 46.90 45.38 45.52 45.82 46.28 47.75 46.66 45.72 45.65 45.40 46.08 45.96
41.20 41.92 42.50 43.05 42.98 42.98 43.12 44.07 44.10 43.27 42.93 40.74 40.38 38.17 41.89 41.57 41.60 43.33 44.74 45.13 47.52 46.54 46.60 44.72 41.16 38.61 37.84 38.29 35.61 33.80 31.88 29.11 32.38 39.17 43.92 44.70 45.36 45.73 46.65 46.36 46.94 47.39 46.50 45.10 45.74 46.38 46.80 47.58 46.52 46.42 45.65 45.72 45.34 45.09
40.68 38.93 43.97 43.10 42.86 43.30 43.23 41.59 43.51 41.18 39.15 39.27 38.56 42.35 41.51 41.38 40.76 42.18 44.07 44.42 47.77 46.00 40.83 42.55 37.29 36.75 40.59 35.85 34.79 37.40 33.50 36.95 42.21 44.01 45.00 46.86 46.24 46.38 46.12 48.13 49.17 48.21 47.22 45.90 46.17 46.91 46.17 46.72 47.37 46.08 43.49 45.14 45.37 44.55
39.00 42.04 43.18 42.84 42.77 41.43 41.50 42.82 40.48 40.03 36.44 38.68 37.10 38.86 40.58 41.49 40.66 41.89 44.36 46.07 45.41 45.37 44.59 40.90 43.51 37.83 35.39 33.49 34.71 40.18 42.40 44.53 44.71 44.54 45.19 46.10 46.15 47.26 47.86 46.53 48.56 48.13 47.14 46.86 46.83 46.41 46.04 45.63 45.06 43.54 42.77 44.81 44.86 43.48
40.30 41.58 41.97 43.08 42.63 38.81 36.39 39.89 41.71 34.68 37.05 39.65 40.81 42.19 42.49 42.66 44.59 45.55 45.67 46.59 47.03 48.45 47.25 44.21 39.09 37.33 38.20 41.68 41.60 42.63 43.64 45.22 43.76 46.00 46.05 46.31 48.67 47.75 46.84 47.77 48.93 47.91 47.13 46.31 46.31 46.01 47.31 46.16 44.86 44.02 42.97 43.44 42.76 42.30
42.20 42.78 42.79 43.49 43.21 37.81 34.27 36.11 43.72 38.82 35.59 39.07 40.49 39.37 40.66 41.06 43.03 43.85 44.35 45.13 45.86 45.08 42.72 40.68 40.81 42.63 42.53 44.12 45.61 45.28 46.22 47.83 45.83 43.06 44.56 47.08 48.60 48.52 47.82 46.80 45.94 46.76 46.77 46.32 46.79 44.01 45.35 44.44 44.69 44.63 43.32 43.17 42.73 41.66
41.22 41.83 42.56 42.14 39.91 39.07 36.66 36.21 36.17 38.51 39.03 37.67 40.30 40.23 39.82 42.40 41.48 41.52 42.06 44.40 41.64 41.79 40.93 44.06 44.81 46.14 47.88 47.84 48.05 47.17 47.84 47.75 46.50 45.21 44.40 44.30 47.93 48.15 47.51 47.37 47.84 46.68 45.79 44.76 45.78 44.24 44.31 44.66 44.36 44.74 43.97 44.27 43.53 42.80
39.30 42.16 39.26 40.69 35.65 36.45 36.37 39.00 36.07 38.39 36.82 36.43 35.68 36.75 35.15 34.86 36.38 38.15 41.37 38.69 38.48 40.58 44.27 45.47 46.56 47.86 47.31 46.99 47.71 48.93 49.26 48.75 47.60 46.58 44.63 45.12 46.63 46.90 46.91 46.87 46.31 45.79 46.44 44.93 44.75 45.47 44.40 43.76 44.45 44.39 44.01 43.78 42.30 41.80
41.22 39.99 37.48 36.20 31.35 31.34 30.31 37.97 32.70 34.52 30.75 32.97 35.57 33.21 33.86 35.17 38.16 41.92 38.44 41.13 42.14 45.36 45.41 45.80 47.51 48.52 48.47 49.01 49.68 49.44 50.05 49.15 47.44 47.80 46.83 46.87 47.66 48.50 47.86 46.84 47.75 45.84 45.90 44.88 46.07 45.10 44.53 41.79 41.78 44.27 44.11 43.50 42.96 41.20
41.76 35.30 33.67 31.46 31.03 27.28 34.35 31.98 35.36 33.90 34.16 32.19 31.38 30.75 32.77 35.32 39.66 37.10 34.87 38.10 41.94 44.62 44.92 46.53 47.79 46.99 47.14 47.37 46.65 47.58 48.33 48.13 46.87 47.78 48.71 47.38 46.43 47.13 48.21 47.59 48.13 47.66 47.18 45.79 45.56 45.61 45.22 43.40 41.68 42.91 42.62 42.25 41.08 39.56
29.42 28.26 30.39 26.42 32.47 30.13 28.30 28.86 30.29 29.83 28.75 30.70 30.02 30.34 32.50 36.49 31.80 32.29 32.94 37.36 41.59 39.99 41.67 44.96 46.01 46.85 45.22 45.85 47.05 46.90 49.10 47.54 45.96 45.81 47.62 47.81 47.31 47.43 47.51 47.77 46.88 46.62 46.13 44.20 43.48 44.54 43.84 43.53 43.45 42.90 41.47 39.65 38.85 38.63
25.39 29.12 27.66 28.56 29.32 28.32 29.02 27.22 28.88 29.00 30.30 30.08 31.84 35.39 36.29 33.39 30.72 30.57 35.62 37.58 38.34 39.12 39.78 41.49 42.68 42.14 45.08 45.69 45.19 45.51 47.50 48.54 48.35 46.94 47.83 48.80 47.72 46.28 45.41 44.92 44.21 43.25 45.09 44.28 43.51 43.28 43.49 43.49 41.94 39.98 37.53 36.67 34.73 38.67
24.80 25.60 30.70 34.66 32.09 31.36 28.71 30.01 30.73 28.99 27.76 28.65 31.82 32.24 33.04 29.86 30.82 33.53 38.41 37.92 38.07 39.55 41.20 42.96 42.75 42.21 44.57 45.81 47.62 47.67 48.77 49.15 48.21 47.55 49.61 49.09 48.97 48.92 47.94 45.97 43.61 43.96 45.75 45.69 44.87 44.17 42.91 42.87 42.19 41.36 39.38 38.32 37.63 37.49
28.95 29.51 25.25 28.42 29.36 30.67 27.05 27.68 27.15 26.67 28.86 33.58 31.80 29.25 29.51 28.74 30.86 37.60 40.27 41.13 41.71 42.45 41.64 42.17 43.17 43.19 43.36 44.59 47.30 47.56 47.90 48.52 48.95 48.04 47.82 47.45 46.01 45.24 44.78 45.04 44.77 37.64 44.31 44.64 44.62 44.43 43.87 42.95 41.89 41.34 39.64 37.85 36.54 37.03
29.13 31.45 31.04 27.02 28.68 29.04 28.81 28.25 28.94 31.56 34.82 33.27 29.57 30.31 32.64 37.28 40.17 41.05 42.55 43.58 45.53 43.98 40.99 41.13 42.32 45.14 45.47 46.80 47.75 47.11 47.83 46.85 44.52 42.62 43.58 41.12 41.14 41.34 44.43 44.61 44.06 43.59 42.36 39.67 34.14 38.85 42.21 41.39 42.19 40.78 39.40 37.81 36.95 36.31
28.52 32.50 29.08 28.47 26.79 26.03 30.26 33.62 32.88 35.65 36.90 36.94 37.13 37.04 37.17 38.36 36.26 37.95 37.42 38.20 37.61 36.26 36.87 39.49 41.63 40.30 40.65 42.78 43.49 41.19 42.40 43.63 45.08 44.27 42.25 41.17 42.03 45.19 43.82 43.53 43.75 42.66 42.56 41.22 39.47 36.82 33.67 38.99 37.32 38.90 36.56 34.90 33.02 33.75
32.98 32.67 30.85 30.49 29.19 32.27 34.67 36.71 37.14 37.49 37.56 36.46 37.98 35.94 35.76 34.48 34.48 35.23 34.68 35.27 35.34 34.83 34.36 35.22 36.51 37.27 37.49 38.86 38.09 39.56 38.35 39.59 40.74 41.41 42.12 44.26 45.53 45.07 45.25 45.15 45.32 44.83 44.00 41.96 40.32 40.03 40.28 38.35 36.98 34.37 33.16 31.30 31.86 32.69
34.40 31.82 30.67 29.04 30.63 35.73 37.36 35.67 35.13 34.68 35.42 35.31 35.33 37.38 37.54 32.61 29.65 32.56 33.64 34.50 33.17 31.15 32.58 33.66 33.84 34.20 36.77 37.82 36.64 35.65 33.71 35.77 36.18 37.69 39.68 40.96 42.10 43.43 44.19 44.76 44.85 44.60 43.30 42.73 41.49 38.89 36.87 34.88 33.32 32.53 31.39 30.80 30.44 30.31
34.10 34.33 34.13 33.52 33.16 31.93 35.17 35.19 33.68 33.34 34.39 33.71 34.32 34.76 33.21 30.21 26.09 30.91 35.15 34.72 33.36 32.97 32.89 33.72 35.34 36.08 35.60 36.88 37.29 37.46 36.44 35.75 33.60 32.33 32.61 32.70 32.85 35.71 41.52 42.42 42.30 41.52 40.78 39.72 38.61 37.43 35.75 34.42 32.78 32.26 31.32 30.96 30.11 29.57
MSLP
1028.03 1027.64 1027.19 1026.69 1026.22 1025.73 1025.27 1024.74 1024.20 1023.69 1023.20 1022.70 1022.20 1021.74 1021.33 1021.00 1020.79 1020.62 1019.70 1019.01 1019.25 1017.67 1015.32 1014.83 1014.55 1013.97 1013.55 1013.32 1012.86 1012.44 1012.11 1011.29 1011.03 1011.03 1010.50 1009.96 1009.22 1008.61 1008.06 1007.52 1007.09 1006.76 1006.43 1005.90 1005.50 1005.60 1005.73 1005.04 1002.52 1001.58 1001.42 999.87 998.57 998.36
1027.50 1027.04 1026.64 1026.22 1025.76 1025.25 1024.73 1024.19 1023.69 1023.16 1022.64 1022.22 1021.76 1021.24 1020.79 1020.44 1020.21 1020.05 1019.43 1018.19 1017.81 1017.47 1015.28 1014.24 1013.15 1012.45 1012.49 1011.97 1012.52 1012.84 1013.31 1013.14 1012.68 1012.54 1011.94 1011.36 1010.10 1009.49 1008.94 1008.14 1007.45 1007.22 1007.08 1006.49 1006.24 1006.46 1006.53 1005.87 1004.83 1003.27 1001.69 1000.34 999.31 998.61
1026.93 1026.50 1026.14 1025.77 1025.33 1024.75 1024.19 1023.64 1023.10 1022.59 1022.10 1021.66 1021.23 1020.76 1020.28 1019.85 1019.64 1019.63 1019.01 1018.49 1017.99 1016.88 1014.71 1012.98 1011.64 1010.14 1010.31 1010.84 1011.42 1012.72 1013.08 1013.14 1012.95 1013.24 1012.69 1011.72 1010.58 1009.97 1009.43 1008.87 1007.95 1007.42 1006.78 1006.09 1005.83 1007.06 1006.89 1006.63 1005.93 1003.49 1001.63 1000.56 1000.04 999.27
1026.48 1026.09 1025.71 1025.33 1024.85 1024.32 1023.72 1023.08 1022.51 1021.99 1021.50 1021.03 1020.57 1020.12 1019.64 1019.23 1018.92 1018.68 1018.43 1017.75 1017.40 1016.75 1015.59 1012.39 1010.76 1010.44 1010.13 1010.66 1011.35 1011.93 1012.37 1012.89 1013.01 1012.92 1012.38 1011.32 1010.31 1009.85 1009.58 1009.39 1008.51 1008.13 1007.69 1007.44 1007.50 1007.40 1006.61 1005.44 1003.77 1002.39 1000.93 1000.45 999.81 999.24
1026.05 1025.75 1025.29 1024.84 1024.34 1023.74 1023.09 1022.49 1021.86 1021.26 1020.82 1020.30 1019.80 1019.34 1018.91 1018.55 1018.18 1017.75 1017.14 1016.69 1016.58 1016.57 1015.24 1012.97 1011.34 1009.24 1009.07 1010.02 1010.89 1011.55 1012.27 1012.61 1012.62 1012.19 1011.54 1010.36 1009.16 1008.96 1009.45 1009.13 1008.25 1007.47 1007.24 1007.15 1006.97 1006.81 1006.41 1005.75 1004.59 1002.89 1001.18 1000.60 1000.24 999.94
1025.74 1025.30 1024.82 1024.33 1023.84 1023.21 1022.60 1021.96 1021.32 1020.61 1019.98 1019.56 1019.01 1018.61 1018.20 1017.86 1017.55 1017.23 1015.67 1015.11 1015.45 1015.69 1015.44 1013.91 1011.12 1009.37 1009.17 1009.35 1010.16 1011.02 1011.55 1012.01 1011.90 1011.22 1010.08 1009.00 1007.85 1007.84 1009.04 1008.76 1008.16 1007.19 1006.71 1006.21 1006.00 1005.37 1004.97 1004.73 1004.52 1003.77 1002.69 1001.72 1000.94 1000.53
1025.20 1024.79 1024.36 1023.89 1023.32 1022.67 1022.13 1021.51 1020.78 1020.08 1019.36 1018.72 1018.23 1017.84 1017.49 1017.14 1017.17 1016.37 1015.52 1014.99 1014.72 1015.18 1015.39 1014.02 1011.54 1008.90 1008.47 1009.04 1009.48 1009.94 1010.64 1010.87 1010.89 1010.28 1009.35 1008.06 1007.19 1007.32 1007.62 1007.73 1007.38 1007.16 1006.55 1006.15 1005.48 1005.06 1005.11 1004.48 1004.09 1003.53 1003.17 1002.35 1001.87 1001.56
1024.78 1024.36 1023.90 1023.39 1022.84 1022.24 1021.68 1021.00 1020.18 1019.37 1018.53 1017.70 1017.08 1016.85 1016.43 1016.24 1016.10 1015.65 1014.36 1014.39 1014.38 1014.92 1014.84 1013.83 1011.38 1009.33 1008.27 1008.75 1009.12 1009.00 1009.63 1010.07 1009.70 1009.17 1008.19 1007.85 1007.37 1007.21 1007.71 1007.50 1007.12 1006.85 1006.57 1006.08 1005.34 1005.27 1005.49 1005.17 1004.78 1004.40 1003.55 1002.86 1002.93 1003.12
1024.48 1024.02 1023.52 1023.01 1022.46 1021.86 1021.29 1020.56 1019.66 1018.72 1017.66 1016.50 1015.86 1015.41 1015.30 1015.33 1014.64 1014.17 1014.08 1014.28 1014.65 1015.16 1014.33 1013.05 1011.43 1009.46 1007.88 1008.20 1008.17 1008.45 1008.76 1009.13 1008.33 1008.32 1007.59 1007.18 1007.40 1007.71 1007.48 1007.28 1007.05 1006.54 1006.19 1006.01 1005.80 1005.65 1005.51 1005.58 1005.57 1005.33 1004.91 1004.80 1005.07 1005.08
1024.12 1023.67 1023.19 1022.66 1022.08 1021.48 1020.84 1020.20 1019.38 1018.19 1016.80 1015.32 1015.08 1014.61 1014.31 1014.25 1014.04 1014.34 1014.71 1014.69 1014.77 1014.48 1014.04 1012.07 1010.48 1009.21 1008.50 1009.30 1008.19 1008.43 1008.59 1008.62 1008.33 1007.69 1006.83 1006.87 1006.96 1006.94 1006.74 1006.73 1006.85 1006.39 1006.22 1006.19 1006.07 1006.19 1006.31 1006.57 1006.62 1006.40 1006.32 1006.43 1006.33 1006.11
1023.76 1023.32 1022.82 1022.25 1021.69 1021.12 1020.46 1019.86 1019.14 1018.07 1016.30 1015.70 1015.28 1015.26 1014.97 1014.31 1013.95 1013.48 1013.16 1013.32 1012.99 1012.44 1011.34 1009.72 1008.95 1008.71 1008.50 1008.84 1008.49 1008.57 1008.84 1008.62 1008.38 1007.66 1007.26 1007.25 1006.99 1006.54 1006.34 1006.34 1006.12 1006.02 1005.93 1005.87 1005.77 1006.35 1006.58 1006.86 1007.12 1007.14 1007.26 1007.19 1007.01 1006.63
1023.40 1022.93 1022.40 1021.79 1021.25 1020.74 1020.09 1019.48 1019.08 1018.50 1018.18 1017.93 1017.83 1016.86 1015.31 1014.06 1013.13 1012.42 1011.53 1010.70 1010.05 1008.81 1007.75 1007.25 1006.99 1007.48 1007.92 1007.88 1008.55 1008.92 1009.18 1009.23 1008.50 1007.97 1007.49 1007.13 1006.58 1006.25 1005.89 1005.65 1005.61 1005.71 1005.80 1005.65 1005.58 1006.07 1006.48 1006.97 1007.32 1007.44 1007.46 1007.61 1007.30 1006.90
1023.03 1022.54 1021.89 1021.31 1020.68 1020.13 1019.48 1019.09 1018.91 1018.45 1017.49 1016.50 1016.60 1016.01 1014.84 1013.54 1012.51 1010.96 1009.68 1008.01 1006.72 1005.79 1005.79 1005.60 1005.89 1006.53 1007.14 1007.63 1008.62 1009.15 1009.44 1009.42 1008.75 1008.29 1007.30 1006.85 1006.36 1006.04 1005.85 1005.81 1005.81 1005.69 1005.64 1005.86 1005.97 1005.92 1006.42 1006.73 1007.02 1007.26 1007.57 1007.78 1007.46 1007.06
1022.56 1021.99 1021.41 1020.79 1020.17 1019.65 1019.40 1019.07 1018.64 1018.17 1017.53 1016.00 1015.04 1014.36 1013.34 1011.56 1009.76 1008.36 1007.15 1005.87 1004.91 1004.57 1004.59 1004.77 1005.26 1006.24 1006.72 1007.86 1008.42 1009.20 1009.06 1009.06 1009.10 1008.51 1007.28 1006.87 1006.40 1005.97 1005.79 1005.84 1005.98 1006.11 1006.34 1006.33 1006.42 1006.42 1006.34 1006.82 1007.22 1007.67 1007.99 1008.09 1007.83 1007.68
1022.05 1021.51 1020.99 1020.35 1020.03 1019.72 1019.32 1018.75 1018.33 1018.04 1017.12 1015.50 1013.78 1012.47 1010.51 1009.04 1007.61 1006.59 1005.83 1005.19 1004.23 1003.88 1004.08 1004.56 1004.90 1005.52 1006.79 1007.60 1008.05 1008.39 1008.72 1009.20 1008.98 1008.08 1007.31 1007.12 1007.04 1007.13 1006.17 1005.89 1006.07 1006.29 1006.46 1006.60 1006.59 1006.70 1006.74 1007.02 1007.50 1007.91 1008.17 1008.42 1008.39 1008.28
1021.76 1020.82 1020.42 1020.31 1019.81 1019.25 1018.69 1017.85 1017.04 1016.93 1015.95 1014.60 1012.81 1010.61 1008.94 1007.84 1006.80 1005.88 1005.19 1004.59 1003.82 1003.56 1003.58 1004.03 1004.65 1005.45 1006.27 1007.03 1007.68 1008.01 1008.42 1008.66 1008.24 1007.07 1006.76 1006.62 1006.75 1007.02 1006.05 1005.90 1005.94 1006.25 1006.64 1006.81 1006.84 1006.89 1007.02 1007.20 1007.58 1007.97 1008.28 1008.58 1008.84 1008.85
1021.47 1020.78 1019.96 1019.65 1019.36 1018.76 1017.95 1017.79 1016.28 1015.55 1014.40 1012.60 1010.60 1009.51 1008.92 1007.90 1006.90 1005.95 1005.08 1004.33 1003.91 1003.96 1004.54 1005.07 1004.97 1005.13 1005.57 1006.09 1006.84 1007.10 1007.38 1006.82 1006.26 1006.05 1005.96 1005.81 1005.93 1005.78 1005.72 1005.84 1005.85 1006.10 1006.52 1006.82 1007.03 1007.10 1007.36 1007.43 1007.67 1007.96 1008.55 1008.79 1009.11 1009.11
1021.24 1020.37 1020.07 1019.73 1019.38 1018.46 1017.16 1016.41 1015.41 1013.42 1012.21 1010.83 1009.94 1008.85 1008.31 1007.49 1006.53 1005.59 1004.70 1004.05 1003.85 1003.34 1003.30 1004.30 1004.56 1004.74 1005.03 1005.05 1005.43 1005.39 1005.31 1005.23 1005.21 1005.12 1005.40 1005.11 1005.13 1005.26 1005.14 1005.37 1005.46 1005.85 1006.26 1006.66 1007.00 1007.24 1007.38 1007.60 1007.97 1008.34 1008.63 1009.04 1009.47 1009.72
1020.89 1020.56 1020.04 1019.49 1019.44 1019.17 1017.49 1015.12 1014.57 1012.87 1010.74 1009.61 1008.42 1007.66 1007.00 1006.17 1005.43 1004.84 1004.20 1003.56 1003.21 1003.08 1003.15 1002.77 1004.27 1004.11 1003.70 1003.51 1003.72 1004.03 1004.21 1004.34 1004.48 1004.25 1004.72 1004.85 1004.57 1005.35 1004.82 1005.01 1005.15 1005.87 1006.21 1006.50 1006.81 1007.07 1007.32 1007.75 1008.09 1008.45 1008.77 1009.19 1009.89 1010.24
1020.34 1019.77 1019.24 1018.64 1018.78 1018.31 1016.89 1015.01 1013.47 1011.99 1010.21 1009.10 1008.33 1007.42 1006.65 1005.81 1005.05 1004.46 1003.82 1003.31 1002.74 1002.29 1002.10 1002.11 1002.12 1002.37 1002.40 1002.13 1002.41 1002.71 1002.85 1002.53 1003.42 1003.94 1004.41 1004.67 1004.67 1004.55 1004.72 1004.99 1005.40 1005.45 1005.81 1006.22 1006.50 1006.91 1007.47 1007.78 1008.06 1008.23 1008.66 1009.15 1009.76 1010.47
1019.50 1018.59 1018.48 1018.25 1017.94 1017.98 1016.43 1014.17 1012.45 1010.81 1009.50 1008.64 1007.72 1007.00 1006.02 1005.20 1004.61 1004.08 1003.51 1003.00 1002.68 1001.97 1001.73 1001.44 1001.19 1001.24 1001.18 1001.25 1001.19 1001.40 1001.73 1001.82 1001.98 1002.73 1003.19 1003.85 1004.57 1004.54 1004.52 1004.93 1005.25 1005.15 1005.62 1006.06 1006.59 1006.92 1007.22 1007.70 1008.00 1008.21 1008.64 1009.24 1009.76 1010.26
1018.86 1018.59 1018.34 1017.79 1017.27 1016.09 1014.64 1013.37 1012.24 1010.61 1009.74 1008.73 1008.19 1007.31 1006.34 1005.51 1004.76 1004.15 1003.67 1003.20 1002.39 1001.80 1001.25 1000.99 1000.80 1000.52 1000.34 1000.45 1000.42 1000.51 1000.76 1000.96 1001.30 1001.87 1002.11 1002.73 1003.51 1003.95 1004.37 1004.31 1004.81 1005.36 1005.52 1005.86 1006.14 1006.63 1007.56 1007.77 1007.88 1008.27 1008.73 1009.68 1010.11 1010.52
1018.38 1018.12 1017.76 1017.43 1016.47 1014.87 1013.00 1011.94 1011.49 1011.04 1010.11 1008.47 1007.69 1007.22 1006.53 1005.59 1004.90 1004.17 1003.23 1002.37 1001.75 1000.88 1000.35 1000.01 999.72 999.56 999.31 999.21 999.60 999.87 1000.05 1000.54 1001.02 1001.02 1001.61 1002.15 1002.54 1003.10 1003.66 1004.06 1004.34 1005.10 1005.91 1005.54 1005.89 1006.42 1007.09 1007.46 1007.88 1008.33 1008.89 1009.45 1010.15 1010.64
1017.50 1017.66 1016.80 1016.04 1015.35 1013.88 1012.32 1011.04 1010.42 1010.08 1009.44 1008.81 1008.20 1007.31 1006.54 1005.80 1004.92 1003.95 1002.96 1002.32 1001.67 1000.98 1000.46 999.85 999.88 999.24 999.40 999.57 999.28 999.46 999.34 999.44 999.77 999.98 1000.51 1001.31 1002.17 1003.19 1003.90 1004.26 1004.38 1004.27 1004.27 1004.90 1005.43 1006.10 1006.70 1007.37 1007.65 1008.27 1008.92 1009.71 1010.38 1010.82
1017.59 1016.81 1016.21 1014.80 1013.60 1012.61 1011.46 1010.56 1009.93 1009.68 1009.09 1008.48 1007.92 1007.08 1005.97 1005.49 1004.99 1004.55 1004.03 1003.51 1003.11 1003.21 1002.93 1001.29 1000.29 999.88 999.74 1000.06 999.46 998.70 998.49 998.82 999.35 1000.04 1001.35 1001.62 1002.30 1003.20 1003.60 1004.37 1003.91 1003.56 1004.16 1004.72 1005.18 1005.93 1006.60 1006.97 1007.65 1008.47 1009.36 1010.06 1010.56 1010.90
1016.33 1014.81 1014.27 1013.18 1012.24 1011.71 1010.90 1010.17 1009.83 1010.04 1009.54 1008.18 1006.87 1005.96 1005.23 1005.03 1005.23 1004.90 1004.95 1005.66 1005.35 1005.08 1004.46 1003.69 1003.21 1001.57 1000.92 998.90 998.53 998.48 998.44 998.55 999.19 999.89 1000.53 1001.18 1001.93 1002.63 1003.01 1003.93 1004.05 1004.05 1003.94 1004.44 1005.11 1005.81 1006.48 1007.15 1007.94 1008.82 1009.80 1010.59 1010.88 1011.14
1014.83 1013.51 1012.57 1012.07 1011.68 1011.24 1010.73 1010.50 1010.46 1010.18 1009.69 1008.32 1007.51 1006.78 1006.05 1005.70 1005.54 1006.72 1006.64 1007.30 1006.84 1006.21 1005.51 1004.93 1004.03 1003.61 1001.82 1000.45 999.95 999.17 998.70 998.94 999.59 999.99 1000.47 1000.97 1001.41 1001.80 1002.15 1002.62 1003.19 1003.78 1003.95 1004.56 1005.14 1005.70 1006.32 1007.10 1007.94 1008.91 1009.82 1010.51 1011.04 1011.57
1013.23 1012.16 1011.53 1011.26 1010.91 1010.72 1010.37 1010.00 1009.76 1009.41 1008.35 1007.55 1008.16 1007.69 1007.04 1006.99 1006.95 1006.77 1006.70 1006.79 1006.90 1006.44 1005.83 1005.46 1004.84 1003.79 1003.14 1002.51 1000.02 999.57 1000.04 999.99 1000.08 1000.52 1000.93 1001.77 1002.04 1002.24 1002.49 1002.73 1002.97 1003.61 1004.15 1004.63 1005.29 1005.80 1006.40 1007.24 1007.99 1008.79 1009.78 1010.58 1011.30 1011.75
1012.43 1011.57 1011.39 1010.92 1010.72 1010.20 1009.53 1008.82 1008.34 1007.96 1007.45 1007.14 1006.98 1006.97 1007.30 1007.20 1007.12 1006.98 1006.88 1006.68 1006.42 1006.26 1005.72 1005.17 1004.46 1003.84 1003.51 1002.71 1002.09 1001.99 1001.82 1001.80 1001.90 1002.43 1002.54 1002.62 1002.81 1003.27 1003.19 1003.89 1004.09 1004.33 1004.94 1005.69 1005.98 1006.12 1006.64 1007.59 1008.19 1009.11 1010.03 1010.85 1011.49 1011.98
1011.37 1010.96 1010.67 1009.95 1009.60 1008.90 1008.18 1008.08 1007.31 1006.90 1006.75 1006.27 1006.05 1005.97 1006.38 1007.37 1008.81 1008.61 1008.16 1007.60 1007.49 1007.55 1007.42 1006.80 1005.90 1005.62 1005.40 1004.69 1004.42 1004.66 1004.51 1004.29 1004.08 1004.06 1004.71 1004.80 1004.88 1004.70 1003.94 1003.64 1004.15 1004.63 1005.30 1005.98 1006.84 1007.59 1007.90 1008.41 1009.20 1009.91 1010.96 1011.80 1012.23 1012.58
1010.88 1010.39 1009.82 1009.28 1008.38 1007.37 1006.85 1006.56 1006.35 1006.05 1005.81 1005.67 1005.44 1005.36 1005.63 1008.10 1009.41 1010.17 1010.13 1009.89 1009.70 1009.51 1009.00 1008.28 1007.86 1007.57 1007.16 1006.64 1006.55 1006.22 1006.26 1006.35 1006.25 1005.93 1005.18 1004.94 1005.04 1005.14 1004.33 1003.91 1004.06 1004.71 1005.10 1006.17 1007.14 1007.80 1008.40 1009.28 1009.96 1010.77 1011.66 1012.33 1012.69 1012.90
1009.86 1009.44 1008.94 1008.25 1007.44 1006.61 1006.15 1005.78 1005.58 1005.62 1005.45 1005.27 1005.10 1004.99 1005.66 1008.29 1009.86 1011.25 1011.82 1011.24 1010.77 1010.41 1010.14 1009.81 1009.29 1009.01 1008.80 1008.45 1008.37 1008.39 1008.21 1007.88 1007.77 1007.22 1006.77 1006.26 1005.99 1006.07 1005.92 1005.45 1005.30 1005.40 1005.85 1006.78 1007.77 1008.64 1009.37 1010.24 1011.01 1011.63 1012.15 1012.57 1012.96 1013.37
1008.69 1008.20 1007.79 1007.51 1007.24 1006.58 1005.63 1005.60 1005.75 1005.52 1005.27 1005.56 1006.11 1007.23 1008.25 1009.78 1011.46 1012.72 1012.67 1012.49 1012.10 1011.54 1011.14 1010.76 1010.44 1010.15 1009.93 1009.61 1009.42 1009.36 1009.21 1009.06 1008.89 1008.37 1008.20 1007.61 1007.74 1007.68 1007.54 1007.23 1007.08 1007.41 1007.80 1008.49 1009.18 1009.76 1010.42 1011.02 1011.52 1011.80 1012.27 1012.92 1013.44 1013.89
Wind_Speed
17 17 18 18 18 18 19 22 19 22 20 19 18 18 18 16 14 8 8 8 4 5 14 17 12 15 17 11 5 6 7 7 4 8 4 5 3 4 5 4 7 3 2 1 2 2 3 22 25 7 3 6 5 6
17 17 17 17 18 18 19 23 21 21 21 20 19 18 18 16 12 9 5 5 2 4 9 17 21 24 19 20 5 0 2 3 3 3 4 4 3 3 5 5 5 2 3 1 4 3 7 15 14 12 8 3 7 7
18 17 17 17 17 18 18 23 23 22 21 19 21 19 18 17 14 9 6 8 4 4 8 4 8 12 10 10 7 2 2 3 2 3 3 3 3 3 3 3 5 8 9 5 2 9 4 9 14 5 8 10 8 7
16 16 17 18 19 20 21 22 23 23 20 20 18 19 19 17 16 13 6 5 3 3 4 7 7 14 6 8 10 5 2 2 2 1 3 3 3 2 3 4 3 1 7 3 2 4 5 13 18 18 11 13 13 11
15 17 18 19 20 20 19 20 21 22 22 22 22 20 19 20 18 10 8 8 8 3 4 8 19 5 7 10 12 7 5 2 2 3 3 4 3 4 2 2 3 2 2 3 2 2 3 4 12 20 15 11 11 9
17 18 18 19 20 19 20 19 20 22 22 22 24 22 20 18 15 5 3 5 9 5 3 5 6 7 8 9 12 11 8 4 3 3 4 4 7 3 2 1 4 5 5 2 3 4 4 3 7 7 12 8 10 8
17 18 18 20 20 20 20 21 21 23 23 23 23 21 19 15 5 5 2 2 4 4 2 5 5 4 4 5 2 3 9 4 3 3 3 3 2 3 2 3 4 9 8 10 7 5 10 9 6 10 12 7 9 11
17 18 19 19 19 19 20 21 23 25 26 26 25 22 19 20 10 5 7 7 4 2 2 4 5 4 6 3 2 3 4 4 4 4 3 2 3 2 3 2 6 6 5 3 6 6 4 8 12 15 15 18 18 16
17 18 19 20 19 19 20 21 23 25 27 29 27 27 4 3 3 2 7 6 3 2 3 4 3 4 3 4 3 2 3 3 4 3 3 3 0 2 1 5 6 1 2 4 3 2 7 12 12 13 14 15 13 14
18 18 19 20 20 20 20 22 24 27 28 30 7 4 2 1 10 8 1 2 2 2 3 5 4 6 4 4 2 2 2 2 2 4 2 2 1 3 5 7 7 5 1 6 3 7 9 8 8 10 10 8 7 7
18 18 20 20 21 21 20 21 22 25 15 5 5 4 6 4 3 4 4 4 5 5 6 6 8 6 1 3 3 1 1 3 2 3 1 1 2 2 4 4 3 3 2 6 5 9 7 9 7 8 8 9 8 8
18 19 20 20 21 22 20 19 18 9 5 8 8 7 4 3 3 5 3 5 7 6 6 4 5 5 3 3 3 2 1 3 4 4 1 2 3 5 2 4 4 6 8 8 7 12 9 9 5 4 3 2 2 5
19 20 21 22 22 22 16 12 12 17 16 2 2 3 2 3 5 6 6 5 4 4 4 4 4 5 2 3 1 2 1 4 5 3 3 3 7 6 6 6 5 6 8 7 7 7 10 6 6 2 5 2 4 7
19 20 21 22 17 11 14 14 16 11 5 4 4 5 6 6 6 7 8 7 4 5 2 1 4 4 4 3 3 3 5 1 2 2 3 1 3 1 6 5 4 4 2 6 6 7 7 11 9 8 8 7 7 9
20 22 21 9 11 14 17 18 17 4 3 5 4 6 7 8 9 9 8 9 9 2 2 1 1 4 2 1 2 1 3 2 5 5 1 3 4 6 5 4 6 2 5 4 3 4 6 8 8 8 7 6 8 8
21 21 2 9 15 19 20 15 5 4 4 5 8 7 8 8 8 8 8 6 6 3 2 2 2 2 4 4 4 5 4 5 5 3 4 6 7 12 5 5 5 8 6 3 4 5 5 5 6 7 7 7 6 6
19 4 15 20 22 23 21 5 4 7 6 7 6 6 9 11 11 11 10 8 4 3 1 3 3 6 3 4 3 4 6 5 4 4 3 7 8 4 5 7 6 6 7 5 1 4 2 1 5 7 6 6 7 6
10 10 20 22 18 13 3 6 5 6 10 8 7 8 9 10 11 11 10 9 7 7 4 8 5 4 4 4 3 4 4 4 4 4 5 5 6 4 5 6 5 7 7 7 5 4 2 1 7 5 5 7 6 6
12 13 21 23 13 5 5 4 4 6 6 7 8 8 9 9 9 10 10 10 7 6 3 2 2 3 4 4 4 2 1 4 5 4 3 6 8 8 5 3 8 9 7 7 5 4 2 6 4 5 3 5 6 4
20 19 21 20 8 3 5 6 5 6 5 5 8 9 9 9 10 10 10 9 8 5 6 5 5 6 5 3 5 7 8 5 4 2 1 2 1 6 5 3 3 2 6 6 4 2 7 5 2 3 4 5 6 6
15 3 9 10 5 6 6 5 6 6 7 7 8 10 8 8 8 8 7 6 8 6 8 5 6 6 7 8 4 2 4 3 5 7 6 7 7 2 2 4 3 3 3 3 4 3 6 5 3 5 5 7 5 7
8 14 7 5 5 5 7 7 6 4 6 8 9 8 8 8 9 11 10 10 8 8 7 8 8 10 6 9 8 5 3 2 6 1 8 11 8 8 7 6 5 1 4 5 5 8 4 4 4 5 6 8 8 7
14 6 5 6 6 6 7 6 10 8 7 5 8 13 8 9 9 10 8 6 10 9 9 9 10 16 8 4 1 3 3 7 8 7 10 8 6 6 4 4 5 5 4 4 6 6 5 7 4 5 6 6 7 5
3 3 4 5 8 6 5 8 6 7 7 9 10 17 17 11 11 12 13 9 8 9 9 8 11 2 4 5 4 6 6 5 5 4 9 7 7 6 3 5 6 6 5 6 6 7 6 6 6 6 6 8 7 5
5 6 5 7 6 6 7 10 13 11 15 15 16 14 7 6 9 12 15 10 10 11 13 14 12 5 6 10 11 5 7 4 5 6 8 6 8 6 5 4 4 5 5 5 5 7 7 6 7 8 9 7 6 6
6 6 7 6 6 7 6 9 5 9 10 6 6 4 3 5 8 7 5 8 8 9 11 11 8 13 12 4 3 2 2 2 2 7 9 11 10 10 10 12 6 4 4 6 5 6 9 9 11 12 10 8 6 6
7 9 6 8 10 12 11 7 9 7 7 6 4 4 2 3 2 2 1 6 6 7 9 10 11 10 10 9 5 5 6 5 6 4 8 8 7 6 6 7 12 6 6 7 6 6 7 9 9 11 10 7 6 6
9 7 14 11 11 9 14 10 11 13 8 2 3 7 8 2 2 3 2 3 0 2 5 8 8 10 12 12 6 5 6 5 6 7 8 6 8 7 8 6 8 13 7 6 7 6 7 9 8 9 10 8 6 5
5 7 9 15 14 9 10 12 11 9 10 9 10 4 4 2 1 2 4 5 3 4 7 7 9 8 9 10 12 11 9 8 10 10 3 6 9 4 8 7 7 8 7 8 9 9 11 7 10 12 12 7 6 5
10 8 7 7 12 13 12 9 11 10 9 9 8 6 5 4 8 11 10 10 10 10 10 9 9 11 11 12 9 11 10 9 9 6 2 5 5 5 5 10 10 9 8 8 9 8 10 13 13 12 10 6 4 3
4 3 4 4 6 10 11 11 11 10 8 10 11 9 5 7 5 9 11 10 9 8 9 9 9 10 11 10 9 7 7 8 10 11 5 2 6 9 8 5 8 8 8 10 9 8 8 9 10 11 10 8 6 5
3 5 4 4 4 6 8 9 8 7 9 8 8 5 2 6 5 3 8 9 8 9 8 8 7 7 9 7 8 7 7 6 7 8 12 10 10 11 8 7 8 10 13 12 11 13 14 12 8 7 7 8 8 7
4 7 9 4 2 3 3 2 2 3 4 4 4 8 5 5 6 6 4 8 7 7 7 7 6 6 8 9 9 6 7 7 10 11 11 14 13 11 8 8 10 12 13 11 10 11 11 12 9 9 9 9 7 7
Wind_Direction
303 304 304 304 306 308 312 319 319 319 316 317 321 321 322 321 324 321 285 277 243 270 284 278 278 299 300 289 305 320 330 21 332 16 332 341 335 4 313 304 331 337 289 163 158 222 265 2 338 41 345 305 36 36
302 303 305 305 306 306 307 315 317 317 317 318 318 317 316 316 314 311 268 278 339 259 278 299 281 269 252 254 264 89 277 275 341 325 347 321 306 345 310 326 344 352 317 346 11 52 13 331 322 300 284 65 30 36
306 311 309 308 307 305 307 314 314 314 314 314 316 313 312 311 313 294 281 285 289 262 281 264 274 288 232 216 150 154 199 257 310 37 322 291 300 317 331 330 312 347 347 18 39 34 331 296 292 328 0 53 35 21
307 311 310 309 311 312 314 314 314 313 311 312 310 310 310 309 310 300 269 269 236 280 272 280 305 312 268 135 138 178 150 171 238 211 244 253 265 231 330 319 312 213 323 27 86 356 295 327 338 339 17 35 19 12
312 311 308 309 309 312 308 310 311 312 312 310 311 310 313 314 309 295 254 236 234 242 291 302 305 276 176 153 164 164 165 227 267 264 219 245 264 139 24 296 302 119 254 19 44 283 245 276 321 327 350 23 2 7
309 306 309 310 311 311 315 316 313 307 311 307 309 308 310 312 317 287 258 184 210 197 297 299 308 276 200 180 176 179 187 184 236 244 258 246 215 120 111 288 334 353 36 37 261 328 1 92 213 294 325 10 353 0
311 311 310 311 310 309 313 315 314 313 310 306 304 304 302 305 306 248 341 348 194 122 241 279 267 241 205 174 204 192 186 204 221 262 258 257 339 96 9 46 24 3 353 13 348 8 19 347 341 18 347 358 355 29
315 314 311 312 315 316 316 318 313 310 308 304 302 301 296 296 286 245 236 234 160 217 232 273 276 273 167 216 229 204 158 190 234 247 271 257 345 78 64 65 63 22 99 31 2 71 45 36 26 19 15 29 33 24
315 315 316 315 314 316 318 314 318 315 308 302 303 301 275 200 239 85 82 76 51 263 275 231 254 266 183 243 198 191 170 219 218 222 253 107 59 87 266 82 86 97 295 328 353 32 54 45 42 34 28 25 23 13
318 319 319 322 321 318 318 321 318 315 307 300 291 221 134 204 131 121 56 164 181 215 227 254 241 266 43 3 302 35 3 275 261 251 356 57 233 191 82 138 158 186 240 68 350 64 79 69 48 35 32 30 29 7
320 321 319 321 322 321 319 317 322 326 310 335 334 14 330 163 229 210 211 202 170 220 210 230 210 229 10 247 232 95 251 285 287 275 174 243 285 223 162 172 177 138 163 163 96 119 99 82 64 54 43 25 20 354
321 320 320 320 320 318 316 314 317 330 337 296 290 291 273 270 238 251 219 216 200 234 185 208 182 170 202 144 98 283 176 10 269 333 231 237 196 207 162 89 73 43 57 36 78 111 104 110 109 147 126 64 351 334
321 320 321 321 317 312 313 314 319 313 306 229 204 236 216 232 238 212 216 227 217 208 154 205 160 139 45 92 90 81 45 249 327 329 247 162 193 184 157 111 80 27 37 37 11 88 121 124 128 50 81 178 8 14
322 321 322 320 315 344 342 328 317 319 286 257 225 251 213 217 231 202 251 264 230 231 100 17 126 145 161 142 156 186 212 169 287 257 246 165 45 234 144 154 127 124 121 58 29 15 57 99 83 70 49 37 14 32
325 323 319 321 348 336 323 309 303 286 265 272 241 241 232 233 279 276 255 257 275 179 110 345 32 120 117 114 287 51 205 217 201 231 227 94 75 351 217 159 139 136 35 56 49 20 38 93 107 97 84 49 43 20
326 314 12 343 345 339 324 312 263 213 236 240 234 267 287 293 293 299 309 291 291 271 140 141 148 186 171 180 179 209 163 219 244 237 164 163 176 250 166 153 142 146 177 135 56 47 34 50 82 116 110 101 75 33
317 221 347 354 339 325 307 267 232 211 231 235 237 248 265 275 278 279 284 287 257 163 180 312 184 211 208 156 197 179 201 211 203 224 207 160 167 159 172 177 177 145 127 131 200 105 34 21 89 81 79 96 91 61
288 306 337 324 326 315 266 196 261 255 229 239 258 256 259 260 268 271 274 280 288 278 237 162 228 202 208 191 207 219 214 219 222 230 184 177 189 252 194 185 169 157 143 143 150 147 202 72 90 88 70 79 89 52
305 305 303 300 306 305 283 234 221 257 263 286 273 262 259 261 254 264 266 270 266 262 267 106 87 255 219 213 236 43 345 202 217 187 161 199 161 190 218 264 151 158 149 162 185 196 157 103 109 114 127 101 106 79
296 289 285 284 279 260 257 259 236 247 267 272 298 282 279 279 282 282 283 287 281 266 224 226 211 210 242 254 162 182 227 172 155 163 207 342 0 174 174 157 121 130 152 173 205 141 117 112 168 131 98 96 101 92
299 265 325 320 294 209 278 265 244 276 264 258 264 286 277 296 293 296 298 320 313 283 247 252 249 240 237 254 265 297 301 249 172 188 177 177 198 181 229 159 197 182 154 165 88 155 109 129 117 88 102 100 90 92
272 291 300 261 244 247 228 222 253 278 290 298 300 274 269 277 280 279 284 279 270 272 264 256 269 256 238 251 247 212 260 54 326 238 141 145 165 183 217 185 161 72 210 148 140 112 110 98 103 95 85 114 98 95
263 242 213 228 239 251 257 245 252 246 251 264 312 308 296 306 301 302 286 290 292 271 252 252 240 236 238 194 134 261 212 212 219 205 172 178 179 176 150 132 123 115 221 192 137 133 131 138 125 126 108 85 102 91
271 242 257 231 206 254 251 249 259 273 264 269 278 286 289 282 281 274 273 269 278 281 286 306 274 132 39 342 297 240 222 200 214 211 162 137 131 127 123 192 191 192 155 149 134 141 139 126 140 101 98 95 97 99
262 237 215 249 251 243 260 263 258 260 265 270 273 269 259 279 289 292 294 305 357 16 353 351 355 334 183 207 236 217 191 167 152 125 125 111 125 120 118 263 254 126 119 115 108 124 125 122 101 100 92 90 89 83
246 232 210 230 246 254 251 286 303 0 315 287 261 282 289 248 241 258 37 11 348 354 351 352 335 348 300 312 8 88 176 101 28 131 142 151 158 166 171 192 142 185 123 122 121 118 125 120 117 112 112 109 89 91
230 243 227 239 263 276 273 273 280 291 288 328 306 255 291 268 51 17 25 21 346 345 350 350 2 329 327 356 342 25 37 73 82 118 159 154 174 179 180 185 138 140 122 116 115 116 116 114 112 121 113 108 101 96
232 252 253 254 255 260 277 282 292 296 276 238 65 328 351 245 272 336 112 194 217 333 24 355 335 346 338 319 296 71 52 35 61 83 79 82 84 78 56 70 101 101 90 95 120 111 108 117 118 119 123 116 113 96
257 268 274 267 275 280 272 264 265 260 263 257 265 247 271 270 116 356 11 340 305 320 7 355 346 0 2 340 40 33 38 41 62 33 349 151 124 115 129 116 101 96 93 91 72 80 85 96 115 109 109 104 103 100
258 252 252 251 254 257 257 259 272 276 280 276 279 266 255 88 28 15 12 13 13 12 358 354 17 18 5 359 30 42 31 29 30 70 37 349 342 328 197 149 144 139 136 123 111 103 97 99 101 103 93 83 80 96
264 246 244 237 262 257 250 251 253 258 279 274 267 267 259 127 90 41 19 12 6 9 11 13 17 13 5 20 14 27 38 26 20 30 46 81 29 359 335 100 93 107 123 132 130 137 116 96 98 102 108 115 117 122
233 230 251 246 273 276 275 262 260 263 271 286 304 294 0 85 74 46 9 356 1 6 8 0 13 11 5 28 38 31 16 16 5 20 36 41 46 47 13 40 69 93 91 80 84 101 98 100 103 109 116 115 107 101
274 265 255 268 263 269 297 179 304 273 256 252 343 39 51 59 69 18 13 4 358 353 355 352 7 19 29 31 36 29 28 45 42 47 59 72 61 47 45 47 61 64 75 84 92 103 112 120 122 118 113 119 114 113